| time (UTC) | temp C | wind direction | speed KPH | gust KPH | rain 1hr cm | rain 24hr cm | rain mn cm | humidity % | barometer mb |
| 20260502170104 | 18 | 260 | 4.8 | 11.3 | 0.00 | 0.00 | 0.00 | 65 | 1013.6 |
| 20260502163604 | 16 | 261 | 4.8 | 8.0 | 0.00 | 0.00 | 0.00 | 73 | 1013.8 |
| 20260502163104 | 16 | 260 | 1.6 | 8.0 | 0.00 | 0.00 | 0.00 | 75 | 1013.8 |
| 20260502162605 | 16 | 291 | 3.2 | 4.8 | 0.00 | 0.00 | 0.00 | 76 | 1014.0 |
| 20260502162104 | 16 | 290 | 3.2 | 4.8 | 0.00 | 0.00 | 0.00 | 76 | 1014.1 |
| 20260502161604 | 15 | 290 | 3.2 | 9.7 | 0.00 | 0.00 | 0.00 | 77 | 1014.1 |
| 20260502161107 | 15 | 290 | 1.6 | 9.7 | 0.00 | 0.00 | 0.00 | 77 | 1014.2 |
| 20260502160604 | 15 | 280 | 4.8 | 9.7 | 0.00 | 0.00 | 0.00 | 77 | 1014.2 |
| 20260502160108 | 15 | 269 | 1.6 | 9.7 | 0.00 | 0.00 | 0.00 | 79 | 1014.2 |
| 20260502152104 | 14 | 39 | 3.2 | 4.8 | 0.00 | 0.00 | 0.00 | 78 | 1014.1 |
| 20260502151604 | 14 | 52 | 1.6 | 4.8 | 0.00 | 0.00 | 0.00 | 78 | 1014.1 |
| 20260502151104 | 13 | 69 | 1.6 | 4.8 | 0.00 | 0.00 | 0.00 | 79 | 1014.1 |
| 20260502150603 | 13 | 69 | 1.6 | 4.8 | 0.00 | 0.00 | 0.00 | 78 | 1014.1 |
| 20260502150104 | 13 | 69 | 3.2 | 4.8 | 0.00 | 0.00 | 0.00 | 78 | 1014.2 |
| 20260502140104 | 12 | 70 | 0.0 | 1.6 | 0.00 | 0.00 | 0.00 | 73 | 1014.1 |
| 20260502130606 | 13 | 56 | 0.0 | 0.0 | 0.00 | 0.00 | 0.00 | 71 | 1013.1 |
| 20260502130107 | 13 | 56 | 0.0 | 0.0 | 0.00 | 0.00 | 0.00 | 70 | 1013.2 |
| 20260502123604 | 13 | 56 | 0.0 | 3.2 | 0.00 | 0.00 | 0.00 | 69 | 1012.8 |
| 20260502123105 | 13 | 56 | 0.0 | 3.2 | 0.00 | 0.00 | 0.00 | 69 | 1012.8 |
| 20260502122104 | 13 | 56 | 0.0 | 1.6 | 0.00 | 0.00 | 0.00 | 69 | 1012.7 |
| 20260502121604 | 13 | 53 | 0.0 | 1.6 | 0.00 | 0.00 | 0.00 | 70 | 1012.8 |
| 20260502121106 | 13 | 46 | 0.0 | 1.6 | 0.00 | 0.00 | 0.00 | 69 | 1012.8 |
| 20260502120604 | 13 | 46 | 0.0 | 1.6 | 0.00 | 0.00 | 0.00 | 70 | 1012.8 |
| 20260502120107 | 13 | 46 | 0.0 | 1.6 | 0.00 | 0.00 | 0.00 | 69 | 1012.7 |
| 20260502115604 | 13 | 46 | 0.0 | 1.6 | 0.00 | 0.00 | 0.00 | 67 | 1012.7 |
| 20260502114605 | 13 | 46 | 0.0 | 0.0 | 0.00 | 0.00 | 0.00 | 59 | 1012.8 |
| 20260502113604 | 13 | 46 | 0.0 | 1.6 | 0.00 | 0.00 | 0.00 | 53 | 1012.8 |
| 20260502113104 | 13 | 45 | 0.0 | 1.6 | 0.00 | 0.00 | 0.00 | 53 | 1012.8 |
| 20260502112604 | 13 | 43 | 0.0 | 1.6 | 0.00 | 0.00 | 0.00 | 52 | 1012.8 |
| 20260502110604 | 14 | 46 | 0.0 | 0.0 | 0.00 | 0.00 | 0.00 | 53 | 1012.8 |
| 20260502110106 | 14 | 46 | 0.0 | 0.0 | 0.00 | 0.00 | 0.00 | 55 | 1012.7 |
| 20260502105604 | 14 | 46 | 0.0 | 0.0 | 0.00 | 0.00 | 0.00 | 55 | 1012.7 |
| 20260502105104 | 14 | 46 | 0.0 | 0.0 | 0.00 | 0.00 | 0.00 | 58 | 1012.7 |
| 20260502104604 | 14 | 46 | 0.0 | 1.6 | 0.00 | 0.00 | 0.00 | 60 | 1012.7 |
| 20260502104104 | 14 | 46 | 0.0 | 1.6 | 0.00 | 0.00 | 0.00 | 61 | 1012.7 |
| 20260502103604 | 14 | 43 | 0.0 | 1.6 | 0.00 | 0.00 | 0.00 | 61 | 1012.7 |
| 20260502103104 | 13 | 46 | 0.0 | 3.2 | 0.00 | 0.00 | 0.00 | 61 | 1012.7 |
| 20260502102605 | 14 | 39 | 0.0 | 4.8 | 0.00 | 0.00 | 0.00 | 61 | 1012.7 |
| 20260502102104 | 14 | 46 | 3.2 | 4.8 | 0.00 | 0.00 | 0.00 | 61 | 1012.7 |
| 20260502100604 | 13 | 32 | 1.6 | 4.8 | 0.00 | 0.00 | 0.00 | 67 | 1012.6 |
| 20260502100106 | 13 | 18 | 1.6 | 4.8 | 0.00 | 0.00 | 0.00 | 74 | 1012.6 |
| 20260502090604 | 13 | 350 | 0.0 | 1.6 | 0.00 | 0.00 | 0.00 | 79 | 1013.2 |
| 20260502090104 | 13 | 350 | 0.0 | 1.6 | 0.00 | 0.00 | 0.00 | 79 | 1013.2 |
| 20260502080107 | 15 | 349 | 0.0 | 0.0 | 0.00 | 0.00 | 0.00 | 78 | 1014.1 |
| 20260502071104 | 15 | 350 | 0.0 | 0.0 | 0.00 | 0.00 | 0.00 | 74 | 1013.9 |
| 20260502070607 | 15 | 350 | 0.0 | 1.6 | 0.00 | 0.00 | 0.00 | 74 | 1013.9 |
| 20260502070105 | 15 | 350 | 0.0 | 1.6 | 0.00 | 0.00 | 0.00 | 73 | 1014.0 |
| 20260502065604 | 15 | 349 | 0.0 | 1.6 | 0.00 | 0.00 | 0.00 | 73 | 1014.0 |
| 20260502065104 | 16 | 349 | 0.0 | 1.6 | 0.00 | 0.00 | 0.00 | 74 | 1014.1 |
| 20260502064604 | 16 | 349 | 0.0 | 1.6 | 0.00 | 0.00 | 0.00 | 74 | 1014.1 |
| 20260502063604 | 16 | 349 | 0.0 | 0.0 | 0.00 | 0.00 | 0.00 | 74 | 1014.1 |
| 20260502062105 | 16 | 349 | 0.0 | 0.0 | 0.00 | 0.00 | 0.00 | 73 | 1014.2 |
| 20260502061605 | 16 | 349 | 0.0 | 0.0 | 0.00 | 0.00 | 0.00 | 73 | 1014.1 |
| 20260502061106 | 16 | 349 | 0.0 | 0.0 | 0.00 | 0.00 | 0.00 | 73 | 1014.1 |
| 20260502060605 | 16 | 349 | 0.0 | 0.0 | 0.00 | 0.00 | 0.00 | 72 | 1014.1 |
| 20260502055606 | 16 | 349 | 0.0 | 3.2 | 0.00 | 0.00 | 0.00 | 71 | 1014.1 |
| 20260502055105 | 16 | 349 | 0.0 | 3.2 | 0.00 | 0.00 | 0.00 | 71 | 1014.2 |
| 20260502054605 | 17 | 348 | 0.0 | 3.2 | 0.00 | 0.00 | 0.00 | 70 | 1014.2 |
| 20260502054104 | 17 | 348 | 0.0 | 1.6 | 0.00 | 0.00 | 0.00 | 70 | 1014.2 |
| 20260502053604 | 17 | 348 | 0.0 | 1.6 | 0.00 | 0.00 | 0.00 | 70 | 1014.3 |
| 20260502052604 | 17 | 348 | 0.0 | 1.6 | 0.00 | 0.00 | 0.00 | 69 | 1014.4 |
| 20260502052104 | 17 | 348 | 0.0 | 1.6 | 0.00 | 0.00 | 0.00 | 69 | 1014.3 |
| 20260502051604 | 17 | 348 | 0.0 | 1.6 | 0.00 | 0.00 | 0.00 | 69 | 1014.3 |
| 20260502051105 | 17 | 348 | 0.0 | 0.0 | 0.00 | 0.00 | 0.00 | 68 | 1014.4 |
| 20260502050605 | 17 | 348 | 0.0 | 0.0 | 0.00 | 0.00 | 0.00 | 68 | 1014.4 |
| 20260502050107 | 17 | 348 | 0.0 | 0.0 | 0.00 | 0.00 | 0.00 | 67 | 1014.4 |
| 20260502045604 | 17 | 348 | 0.0 | 0.0 | 0.00 | 0.00 | 0.00 | 67 | 1014.4 |
| 20260502044604 | 18 | 348 | 0.0 | 0.0 | 0.00 | 0.00 | 0.00 | 66 | 1014.4 |
| 20260502043604 | 18 | 348 | 0.0 | 4.8 | 0.00 | 0.00 | 0.00 | 66 | 1014.1 |
| 20260502043104 | 18 | 348 | 1.6 | 4.8 | 0.00 | 0.00 | 0.00 | 65 | 1014.0 |
| 20260502042104 | 18 | 327 | 0.0 | 4.8 | 0.00 | 0.00 | 0.00 | 65 | 1013.8 |
| 20260502041604 | 18 | 327 | 3.2 | 4.8 | 0.00 | 0.00 | 0.00 | 64 | 1013.8 |
| 20260502041103 | 19 | 327 | 3.2 | 4.8 | 0.00 | 0.00 | 0.00 | 63 | 1013.8 |
| 20260502040604 | 19 | 327 | 1.6 | 4.8 | 0.00 | 0.00 | 0.00 | 63 | 1013.8 |
| 20260502040107 | 19 | 327 | 1.6 | 8.0 | 0.00 | 0.00 | 0.00 | 62 | 1013.8 |
| 20260502035604 | 20 | 326 | 3.2 | 8.0 | 0.00 | 0.00 | 0.00 | 62 | 1013.8 |
| 20260502035104 | 20 | 326 | 1.6 | 9.7 | 0.00 | 0.00 | 0.00 | 61 | 1013.5 |
| 20260502034103 | 20 | 325 | 8.0 | 11.3 | 0.00 | 0.00 | 0.00 | 60 | 1013.3 |
| 20260502033104 | 21 | 323 | 6.4 | 11.3 | 0.00 | 0.00 | 0.00 | 58 | 1013.2 |
| 20260502032604 | 21 | 291 | 3.2 | 4.8 | 0.00 | 0.00 | 0.00 | 58 | 1013.1 |
| 20260502032104 | 21 | 284 | 3.2 | 4.8 | 0.00 | 0.00 | 0.00 | 57 | 1013.0 |
| 20260502031604 | 21 | 284 | 3.2 | 8.0 | 0.00 | 0.00 | 0.00 | 57 | 1012.8 |
| 20260502031105 | 21 | 283 | 4.8 | 8.0 | 0.00 | 0.00 | 0.00 | 57 | 1012.8 |
| 20260502030606 | 21 | 273 | 4.8 | 4.8 | 0.00 | 0.00 | 0.00 | 56 | 1012.7 |
| 20260502030106 | 21 | 269 | 3.2 | 8.0 | 0.00 | 0.00 | 0.00 | 55 | 1012.7 |
| 20260502025104 | 22 | 267 | 4.8 | 8.0 | 0.00 | 0.00 | 0.00 | 52 | 1012.3 |
| 20260502024603 | 22 | 268 | 4.8 | 8.0 | 0.00 | 0.00 | 0.00 | 50 | 1012.2 |
| 20260502024104 | 22 | 267 | 4.8 | 8.0 | 0.00 | 0.00 | 0.00 | 49 | 1012.2 |
| 20260502023104 | 23 | 267 | 4.8 | 4.8 | 0.00 | 0.00 | 0.00 | 48 | 1012.2 |
| 20260502022603 | 23 | 266 | 3.2 | 9.7 | 0.00 | 0.00 | 0.00 | 47 | 1012.2 |
| 20260502022103 | 23 | 265 | 4.8 | 9.7 | 0.00 | 0.00 | 0.00 | 47 | 1012.2 |
| 20260502021604 | 23 | 258 | 4.8 | 8.0 | 0.00 | 0.00 | 0.00 | 46 | 1012.2 |
| 20260502021104 | 24 | 251 | 4.8 | 9.7 | 0.00 | 0.00 | 0.00 | 46 | 1012.2 |
| 20260502020604 | 24 | 273 | 6.4 | 9.7 | 0.00 | 0.00 | 0.00 | 44 | 1012.2 |
| 20260502020106 | 25 | 276 | 4.8 | 12.9 | 0.00 | 0.00 | 0.00 | 44 | 1012.1 |
| 20260502015604 | 25 | 275 | 8.0 | 12.9 | 0.00 | 0.00 | 0.00 | 43 | 1012.0 |
| 20260502015104 | 25 | 274 | 8.0 | 11.3 | 0.00 | 0.00 | 0.00 | 42 | 1011.9 |
| 20260502014604 | 25 | 273 | 6.4 | 11.3 | 0.00 | 0.00 | 0.00 | 41 | 1011.8 |
| 20260502014104 | 26 | 272 | 8.0 | 11.3 | 0.00 | 0.00 | 0.00 | 41 | 1011.7 |
| 20260502013604 | 26 | 276 | 8.0 | 12.9 | 0.00 | 0.00 | 0.00 | 40 | 1011.7 |
| 20260502013104 | 26 | 274 | 8.0 | 12.9 | 0.00 | 0.00 | 0.00 | 38 | 1011.8 |
| 20260502012604 | 26 | 286 | 8.0 | 14.5 | 0.00 | 0.00 | 0.00 | 30 | 1011.8 |
| 20260502012104 | 26 | 273 | 8.0 | 14.5 | 0.00 | 0.00 | 0.00 | 29 | 1011.8 |
| 20260502011604 | 26 | 289 | 9.7 | 16.1 | 0.00 | 0.00 | 0.00 | 28 | 1011.7 |
| 20260502011104 | 27 | 311 | 9.7 | 16.1 | 0.00 | 0.00 | 0.00 | 28 | 1011.7 |
| 20260502010604 | 27 | 301 | 8.0 | 16.1 | 0.00 | 0.00 | 0.00 | 28 | 1011.7 |
| 20260502005104 | 27 | 277 | 8.0 | 19.3 | 0.00 | 0.00 | 0.00 | 33 | 1011.8 |
| 20260502004604 | 27 | 320 | 11.3 | 19.3 | 0.00 | 0.00 | 0.00 | 27 | 1011.8 |
| 20260502004103 | 27 | 309 | 8.0 | 22.5 | 0.00 | 0.00 | 0.00 | 31 | 1011.7 |
| 20260502003603 | 27 | 291 | 9.7 | 22.5 | 0.00 | 0.00 | 0.00 | 31 | 1011.6 |
| 20260502003105 | 27 | 297 | 9.7 | 19.3 | 0.00 | 0.00 | 0.00 | 30 | 1011.6 |
| 20260502002104 | 27 | 320 | 11.3 | 20.9 | 0.00 | 0.00 | 0.00 | 31 | 1011.5 |
| 20260502001604 | 27 | 298 | 11.3 | 20.9 | 0.00 | 0.00 | 0.00 | 32 | 1011.4 |
| 20260502000605 | 27 | 314 | 11.3 | 19.3 | 0.00 | 0.00 | 0.00 | 31 | 1011.4 |
| 20260502000106 | 27 | 309 | 9.7 | 22.5 | 0.00 | 0.00 | 0.00 | 31 | 1011.4 |
| 20260501235604 | 27 | 320 | 8.0 | 24.1 | 0.00 | 0.00 | 0.00 | 31 | 1011.4 |
| 20260501235104 | 28 | 293 | 12.9 | 24.1 | 0.00 | 0.00 | 0.00 | 32 | 1011.4 |
| 20260501234604 | 28 | 304 | 8.0 | 24.1 | 0.00 | 0.00 | 0.00 | 31 | 1011.3 |
| 20260501234104 | 28 | 327 | 11.3 | 24.1 | 0.00 | 0.00 | 0.00 | 32 | 1011.4 |
| 20260501233604 | 28 | 322 | 9.7 | 19.3 | 0.00 | 0.00 | 0.00 | 31 | 1011.3 |
| 20260501233104 | 28 | 300 | 8.0 | 19.3 | 0.00 | 0.00 | 0.00 | 30 | 1011.3 |
| 20260501232604 | 28 | 323 | 12.9 | 20.9 | 0.00 | 0.00 | 0.00 | 28 | 1011.3 |
| 20260501232104 | 28 | 321 | 11.3 | 20.9 | 0.00 | 0.00 | 0.00 | 29 | 1011.3 |
| 20260501231604 | 28 | 322 | 14.5 | 20.9 | 0.00 | 0.00 | 0.00 | 29 | 1011.3 |
| 20260501231104 | 28 | 326 | 11.3 | 19.3 | 0.00 | 0.00 | 0.00 | 28 | 1011.3 |
| 20260501230604 | 28 | 307 | 11.3 | 20.9 | 0.00 | 0.00 | 0.00 | 27 | 1011.4 |
| 20260501230104 | 28 | 295 | 11.3 | 20.9 | 0.00 | 0.00 | 0.00 | 27 | 1011.5 |
| 20260501225604 | 29 | 278 | 11.3 | 19.3 | 0.00 | 0.00 | 0.00 | 27 | 1011.5 |
| 20260501225104 | 28 | 306 | 8.0 | 19.3 | 0.00 | 0.00 | 0.00 | 29 | 1011.6 |
| 20260501224605 | 28 | 339 | 8.0 | 19.3 | 0.00 | 0.00 | 0.00 | 29 | 1011.7 |
| 20260501224104 | 28 | 296 | 11.3 | 19.3 | 0.00 | 0.00 | 0.00 | 28 | 1011.8 |
| 20260501223604 | 28 | 312 | 11.3 | 19.3 | 0.00 | 0.00 | 0.00 | 29 | 1011.7 |
| 20260501223104 | 28 | 269 | 8.0 | 22.5 | 0.00 | 0.00 | 0.00 | 30 | 1011.8 |
| 20260501222104 | 28 | 278 | 9.7 | 16.1 | 0.00 | 0.00 | 0.00 | 32 | 1011.8 |
| 20260501221603 | 28 | 281 | 8.0 | 16.1 | 0.00 | 0.00 | 0.00 | 32 | 1011.8 |
| 20260501221104 | 28 | 288 | 8.0 | 16.1 | 0.00 | 0.00 | 0.00 | 31 | 1012.0 |
| 20260501220606 | 28 | 290 | 8.0 | 19.3 | 0.00 | 0.00 | 0.00 | 32 | 1012.1 |
| 20260501220106 | 27 | 276 | 8.0 | 19.3 | 0.00 | 0.00 | 0.00 | 31 | 1012.3 |
| 20260501215604 | 27 | 288 | 9.7 | 19.3 | 0.00 | 0.00 | 0.00 | 31 | 1012.4 |
| 20260501215104 | 27 | 287 | 8.0 | 16.1 | 0.00 | 0.00 | 0.00 | 31 | 1012.4 |
| 20260501214104 | 27 | 273 | 6.4 | 14.5 | 0.00 | 0.00 | 0.00 | 34 | 1012.5 |
| 20260501213104 | 27 | 302 | 8.0 | 12.9 | 0.00 | 0.00 | 0.00 | 34 | 1012.6 |
| 20260501212604 | 27 | 280 | 8.0 | 12.9 | 0.00 | 0.00 | 0.00 | 33 | 1012.6 |
| 20260501212104 | 27 | 226 | 1.6 | 14.5 | 0.00 | 0.00 | 0.00 | 34 | 1012.6 |
| 20260501211604 | 27 | 265 | 6.4 | 14.5 | 0.00 | 0.00 | 0.00 | 33 | 1012.7 |
| 20260501211104 | 26 | 264 | 4.8 | 12.9 | 0.00 | 0.00 | 0.00 | 36 | 1012.8 |
| 20260501210604 | 26 | 193 | 4.8 | 12.9 | 0.00 | 0.00 | 0.00 | 35 | 1012.9 |
| 20260501210104 | 26 | 277 | 9.7 | 14.5 | 0.00 | 0.00 | 0.00 | 35 | 1012.9 |
| 20260501205604 | 26 | 274 | 6.4 | 14.5 | 0.00 | 0.00 | 0.00 | 36 | 1013.0 |
| 20260501205105 | 26 | 317 | 4.8 | 14.5 | 0.00 | 0.00 | 0.00 | 36 | 1013.0 |
| 20260501204604 | 26 | 273 | 8.0 | 14.5 | 0.00 | 0.00 | 0.00 | 37 | 1013.0 |
| 20260501203605 | 26 | 289 | 8.0 | 14.5 | 0.00 | 0.00 | 0.00 | 35 | 1013.1 |
| 20260501203104 | 25 | 322 | 4.8 | 16.1 | 0.00 | 0.00 | 0.00 | 37 | 1013.1 |
| 20260501202104 | 25 | 322 | 9.7 | 12.9 | 0.00 | 0.00 | 0.00 | 39 | 1013.1 |
| 20260501201105 | 24 | 302 | 8.0 | 12.9 | 0.00 | 0.00 | 0.00 | 39 | 1013.1 |
| 20260501200603 | 24 | 287 | 4.8 | 11.3 | 0.00 | 0.00 | 0.00 | 40 | 1013.1 |
| 20260501195604 | 23 | 289 | 4.8 | 12.9 | 0.00 | 0.00 | 0.00 | 41 | 1013.4 |
| 20260501194604 | 23 | 287 | 6.4 | 11.3 | 0.00 | 0.00 | 0.00 | 43 | 1013.5 |
| 20260501194105 | 23 | 273 | 6.4 | 11.3 | 0.00 | 0.00 | 0.00 | 42 | 1013.5 |
| 20260501193604 | 23 | 256 | 6.4 | 9.7 | 0.00 | 0.00 | 0.00 | 45 | 1013.6 |
| 20260501192604 | 22 | 271 | 4.8 | 12.9 | 0.00 | 0.00 | 0.00 | 46 | 1013.6 |
| 20260501192104 | 22 | 252 | 8.0 | 12.9 | 0.00 | 0.00 | 0.00 | 48 | 1013.6 |
| 20260501191604 | 22 | 297 | 3.2 | 12.9 | 0.00 | 0.00 | 0.00 | 50 | 1013.7 |
| 20260501191104 | 22 | 312 | 8.0 | 12.9 | 0.00 | 0.00 | 0.00 | 49 | 1013.9 |
| 20260501185604 | 21 | 305 | 4.8 | 11.3 | 0.00 | 0.00 | 0.00 | 53 | 1014.2 |
| 20260501185104 | 21 | 279 | 8.0 | 12.9 | 0.00 | 0.00 | 0.00 | 52 | 1014.3 |
| 20260501184604 | 21 | 279 | 4.8 | 12.9 | 0.00 | 0.00 | 0.00 | 55 | 1014.3 |
| 20260501184104 | 20 | 276 | 8.0 | 14.5 | 0.00 | 0.00 | 0.00 | 55 | 1014.3 |
| 20260501183604 | 20 | 296 | 9.7 | 14.5 | 0.00 | 0.00 | 0.00 | 56 | 1014.3 |
| 20260501183105 | 20 | 296 | 8.0 | 14.5 | 0.00 | 0.00 | 0.00 | 56 | 1014.3 |
| 20260501182604 | 20 | 300 | 6.4 | 14.5 | 0.00 | 0.00 | 0.00 | 58 | 1014.4 |
| 20260501182104 | 20 | 308 | 6.4 | 14.5 | 0.00 | 0.00 | 0.00 | 60 | 1014.4 |
| 20260501181604 | 19 | 271 | 6.4 | 12.9 | 0.00 | 0.00 | 0.00 | 59 | 1014.4 |
| 20260501181106 | 19 | 283 | 8.0 | 12.9 | 0.00 | 0.00 | 0.00 | 60 | 1014.4 |
| 20260501180605 | 19 | 258 | 6.4 | 11.3 | 0.00 | 0.00 | 0.00 | 62 | 1014.4 |
| 20260501180106 | 18 | 262 | 8.0 | 12.9 | 0.00 | 0.00 | 0.00 | 61 | 1014.4 |